Wheeling, WV

9:04 AM EST on November 22, 2017 (GMT -0500)
Wheeling-Ohio County

Weather History for KHLG - January, 2012

Change the Weather History Date:

Friday, January 13, 2012

  Actual Average Record
Temperature  
Mean Temperature 21 °F 29 °F  
Max Temperature 27 °F 36 °F 72 °F (2005)
Min Temperature 15 °F 22 °F -8 °F (2009)
Degree Days  
Heating Degree Days 44 36  
Month to date heating degree days 409 468  
Since 1 July heating degree days 1986 2593  
Cooling Degree Days 0    
Month to date cooling degree days 0  
Year to date cooling degree days 0  
Moisture  
Dew Point 12 °F    
Average Humidity 69    
Maximum Humidity 81    
Minimum Humidity 56    
Precipitation  
Precipitation 0.01 in 0.11 in 0.75 in (2007)
Month to date precipitation 0.96 1.36  
Sea Level Pressure  
Sea Level Pressure 29.74 in    
Wind  
Wind Speed 17 mph (WSW)    
Max Wind Speed 35 mph    
Max Gust Speed 51 mph    
Visibility 3 miles    
Events Snow    
T = Trace of Precipitation, MM = Missing Value Source: NWS Daily Summary

Daily Weather History Graph

Daily Weather History Graph

Search for Another Location

Airport or City:

Trip Planner

Search our weather history database for the weather conditions in past years. The results will help you decide how hot, cold, wet, or windy it might be!

Date:

Astronomy

Jan. 13, 2012 Rise Set
Actual Time 7:43 AM EST 5:18 PM EST
Civil Twilight 7:13 AM EST 5:48 PM EST
Nautical Twilight 6:40 AM EST 6:22 PM EST
Astronomical Twilight 6:07 AM EST 6:54 PM EST
Moon 10:30 PM EST (1/13) 9:57 AM EST (1/13)
Length of Visible Light 10h 34m
Length of Day
9h 34m
Waning Gibbous, 79% of the Moon is Illuminated
Jan 13
Waning Gibbous
Jan 16
Last Quarter
Jan 23
New
Jan 30
First Quarter
Feb 7
Full

Hourly Weather History & Observations

Time (EST) Temp. Windchill Dew Point Humidity Pressure Visibility Wind Dir Wind Speed Gust Speed Precip Events Conditions
12:02 AM 26.6 °F 11.7 °F 23.0 °F 86% 29.48 in 2.0 mi WSW 24.2 mph 39.1 mph 0.00 in Snow Light Snow
12:12 AM 26.6 °F 13.8 °F 23.0 °F 86% 29.48 in 1.8 mi WSW 17.3 mph 32.2 mph 0.00 in Snow Light Snow
12:28 AM 26.6 °F 11.7 °F 23.0 °F 86% 29.49 in 3.0 mi WSW 24.2 mph 35.7 mph 0.00 in Snow Light Snow
12:50 AM 24.8 °F 10.0 °F 19.4 °F 80% 29.50 in 8.0 mi West 21.9 mph 36.8 mph 0.00 in   Overcast
12:53 AM 24.1 °F 9.8 °F 19.0 °F 81% 29.53 in 7.0 mi West 19.6 mph 36.8 mph 0.00 in Snow Light Snow
1:53 AM 21.9 °F 5.5 °F 15.1 °F 75% 29.57 in 6.0 mi WSW 24.2 mph 38.0 mph 0.00 in Snow Light Snow
2:07 AM 21.2 °F 4.9 °F 12.2 °F 68% 29.54 in 10.0 mi WSW 23.0 mph 35.7 mph 0.00 in   Overcast
2:53 AM 19.9 °F 4.3 °F 10.9 °F 68% 29.60 in 10.0 mi WSW 19.6 mph 33.4 mph 0.00 in   Overcast
3:53 AM 19.9 °F 2.2 °F 8.1 °F 60% 29.59 in - WSW 26.5 mph 39.1 mph 0.01 in   Overcast
4:53 AM 19.0 °F 2.0 °F 6.1 °F 57% 29.60 in - WSW 23.0 mph 35.7 mph N/A   Overcast
5:53 AM 16.0 °F -2.1 °F 8.1 °F 71% 29.62 in - WSW 23.0 mph 35.7 mph 0.00 in   Overcast
6:11 AM 17.6 °F 2.7 °F 6.8 °F 63% 29.57 in - WSW 16.1 mph 29.9 mph N/A   Overcast
6:53 AM 17.1 °F 2.5 °F 8.1 °F 68% 29.62 in - SW 15.0 mph 33.4 mph N/A   Overcast
7:14 AM 15.8 °F -1.1 °F 8.6 °F 73% 29.59 in 3.0 mi SW 19.6 mph 34.5 mph N/A   Overcast
7:49 AM 15.8 °F 0.3 °F 8.6 °F 73% 29.60 in 3.0 mi SW 16.1 mph 25.3 mph 0.00 in Snow Light Snow
7:53 AM 16.0 °F 0.6 °F 9.0 °F 74% 29.64 in 3.0 mi WSW 16.1 mph 24.2 mph 0.00 in Snow Light Snow
7:56 AM 15.8 °F 0.9 °F 8.6 °F 73% 29.60 in 1.8 mi SW 15.0 mph 24.2 mph 0.00 in Snow Light Snow
8:13 AM 15.8 °F -0.2 °F 8.6 °F 73% 29.61 in 1.0 mi WSW 17.3 mph 32.2 mph 0.00 in Snow Light Snow
8:35 AM 15.8 °F 1.4 °F 8.6 °F 73% 29.62 in 0.8 mi WSW 13.8 mph 34.5 mph 0.00 in Snow Light Snow
9:00 AM 15.8 °F -0.6 °F 10.4 °F 79% 29.63 in 0.5 mi WSW 18.4 mph 31.1 mph 0.00 in Snow Snow
9:03 AM 15.8 °F 0.3 °F 10.4 °F 79% 29.63 in 0.8 mi WSW 16.1 mph 31.1 mph 0.00 in Snow Light Snow
9:14 AM 15.8 °F -0.6 °F 10.4 °F 79% 29.64 in 0.5 mi SW 18.4 mph 29.9 mph 0.00 in Snow Snow
9:37 AM 15.8 °F -0.2 °F 10.4 °F 79% 29.65 in 0.8 mi WSW 17.3 mph 29.9 mph 0.00 in Snow Light Snow
9:53 AM 16.0 °F 0.1 °F 10.9 °F 81% 29.70 in 0.8 mi WSW 17.3 mph 27.6 mph 0.00 in Snow Light Snow
10:30 AM 15.8 °F -1.5 °F 10.4 °F 79% 29.66 in 0.8 mi SW 20.7 mph 33.4 mph 0.00 in Snow Light Snow
10:50 AM 15.8 °F -0.6 °F 10.4 °F 79% 29.67 in 0.5 mi WSW 18.4 mph 36.8 mph 0.00 in Snow Snow
10:53 AM 16.0 °F -0.9 °F 10.9 °F 81% 29.72 in 0.5 mi WSW 19.6 mph 32.2 mph 0.00 in Snow Snow
11:53 AM 17.1 °F -0.3 °F 12.0 °F 81% 29.75 in 0.5 mi WSW 21.9 mph 36.8 mph 0.00 in Snow Snow
11:58 AM 17.6 °F 0.5 °F 12.2 °F 79% 29.69 in 0.8 mi SW 21.9 mph 36.8 mph 0.00 in Snow Light Snow
12:11 PM 17.6 °F 1.7 °F 10.4 °F 73% 29.69 in 1.0 mi WSW 18.4 mph 32.2 mph 0.00 in Snow Light Snow
12:30 PM 17.6 °F 2.2 °F 10.4 °F 73% 29.70 in 3.0 mi WSW 17.3 mph 33.4 mph 0.00 in Snow Light Snow
12:53 PM 19.0 °F 2.4 °F 10.0 °F 68% 29.77 in 8.0 mi West 21.9 mph 36.8 mph 0.00 in Snow Light Snow
1:14 PM 19.4 °F 1.4 °F 10.4 °F 68% 29.71 in 1.8 mi WSW 26.5 mph 35.7 mph 0.00 in Snow Light Snow
1:27 PM 19.4 °F 5.5 °F 10.4 °F 68% 29.72 in 3.0 mi WSW 15.0 mph 36.8 mph 0.00 in Snow Light Snow
1:53 PM 19.0 °F 4.0 °F 10.9 °F 71% 29.80 in 6.0 mi WSW 17.3 mph 38.0 mph 0.00 in Snow Light Snow
2:53 PM 19.9 °F 4.3 °F 10.9 °F 68% 29.85 in 8.0 mi WSW 19.6 mph 26.5 mph 0.00 in Snow Light Snow
3:53 PM 19.0 °F 4.0 °F 12.0 °F 74% 29.89 in 3.0 mi WSW 17.3 mph 26.5 mph 0.00 in Snow Light Snow
4:51 PM 19.4 °F 5.0 °F 12.2 °F 74% 29.86 in 2.0 mi WSW 16.1 mph 28.8 mph 0.00 in Snow Light Snow
4:53 PM 19.0 °F 5.6 °F 12.0 °F 74% 29.93 in 1.8 mi SW 13.8 mph 28.8 mph 0.00 in Snow Light Snow
5:03 PM 19.4 °F 4.1 °F 12.2 °F 74% 29.87 in 2.0 mi WSW 18.4 mph 25.3 mph 0.00 in Snow Light Snow
5:06 PM 19.4 °F 5.0 °F 12.2 °F 74% 29.87 in 1.8 mi WSW 16.1 mph 25.3 mph 0.00 in Snow Light Snow
5:17 PM 19.4 °F 4.1 °F 12.2 °F 74% 29.88 in 3.0 mi WSW 18.4 mph 26.5 mph 0.00 in Snow Light Snow
5:53 PM 19.0 °F 6.1 °F 12.0 °F 74% 29.96 in 4.0 mi WSW 12.7 mph 27.6 mph 0.00 in Snow Light Snow
6:53 PM 18.0 °F 5.4 °F 12.9 °F 81% 29.99 in 3.0 mi WSW 11.5 mph 20.7 mph 0.00 in Snow Light Snow
7:53 PM 18.0 °F 6.1 °F 12.0 °F 78% 30.00 in 6.0 mi WSW 10.4 mph 18.4 mph 0.00 in Snow Light Snow
8:53 PM 18.0 °F 4.2 °F 10.9 °F 74% 30.01 in 8.0 mi WSW 13.8 mph 24.2 mph 0.00 in Snow Light Snow
9:39 PM 17.6 °F 2.7 °F 10.4 °F 73% 29.95 in 5.0 mi WSW 16.1 mph 23.0 mph 0.00 in Snow Light Snow
9:53 PM 18.0 °F 4.8 °F 12.0 °F 78% 30.02 in 6.0 mi WSW 12.7 mph 21.9 mph 0.00 in Snow Light Snow
10:50 PM 17.6 °F 4.3 °F 12.2 °F 79% 29.96 in 2.5 mi WSW 12.7 mph 20.7 mph 0.00 in Snow Light Snow
10:53 PM 18.0 °F 3.1 °F 12.0 °F 78% 30.03 in 2.5 mi WSW 16.1 mph - 0.00 in Snow Light Snow
11:34 PM 17.6 °F 5.0 °F 12.2 °F 79% 29.97 in 3.0 mi WSW 11.5 mph 20.7 mph 0.00 in Snow Light Snow
11:48 PM 17.6 °F 4.3 °F 12.2 °F 79% 29.97 in 2.5 mi WSW 12.7 mph 18.4 mph 0.00 in Snow Light Snow
11:53 PM 18.0 °F 6.9 °F 12.9 °F 81% 30.03 in 3.0 mi WSW 9.2 mph 18.4 mph 0.00 in Snow Light Snow